{"data":{"norad_id":66807,"intl_designator":"2025-278S","name":"STARLINK-36000","alt_names":[],"object_type":"PAYLOAD","status":"ACTIVE","operator":null,"country":"US","launch_date":"2025-12-01","launch_site_code":"AFETR","launch_vehicle":null,"mission":null,"orbit_class":"UNKNOWN","rcs_meters":null,"size_class":null,"mass_kg":null,"dimensions":null,"purposes":["comms"],"wikipedia_slug":null,"has_3d_model":false,"image_url":null,"decayed_at":null,"tle_current":{"epoch":"2026-09-20T22:52:48.303840Z","epoch_age_seconds":47889,"freshness":"FRESH","line1":"1 66807U 25278S   26263.95333685  .00017543  00000+0  64542-3 0  9995","line2":"2 66807  43.0006  91.4939 0001542 272.1393  87.9282 15.27584811 45070","mean_motion":15.27584811,"eccentricity":0.0001542,"inclination_deg":43.0006,"raan_deg":91.4939,"arg_perigee_deg":272.1393,"mean_anomaly_deg":87.9282,"bstar":0.00064542,"rev_number":4507,"period_min":94.266451828448,"perigee_km":481.97669753808,"apogee_km":484.09268288734,"semimajor_km":6861.1716902127,"source":"CELESTRAK","updated_at":"2026-09-21T09:00:36.016625Z"}}}